Home   Weather   Spa   Past weeks

Flag for Belgium Past Weather in Spa, Belgium — Yesterday and Last 2 Weeks

Now
60 °F

Passing clouds.


Feels Like: 59 °F
Forecast: 48 / 61 °F
Wind: 6 mph from Southwest

Location: Spa / La Sauveniere

Current Time: Sep 30, 2016 at 12:18:21 AM

Latest Report: Sep 29, 2016 at 11:00 PM


Visibility: 28 mi

Pressure: 29.98 "Hg

Humidity: 80%

Dew Point: 53 °F

Location of SpaLocation

Past Weather in Spa — Graph

°F

Spa Temperature Yesterday

Maximum temperature yesterday: 65 °F (at 2:00 PM)
Minimum temperature yesterday: 56 °F (at 6:00 AM)
Average temperature yesterday: 60 °F

High & Low Weather Summary for the Past Weeks

 TemperatureHumidityPressure
High72 °F (Sep 15, 11:00 AM)100% (Sep 18, 3:00 AM)30.37 "Hg (Sep 18, 3:00 AM)
Low46 °F (Sep 26, 8:00 AM)39% (Sep 27, 5:00 PM)29.80 "Hg (Sep 15, 11:00 AM)
Average57 °F77%30.13 "Hg
* Reported Sep 14 11:00 PM — Sep 29 11:00 PM, Spa, Weather by CustomWeather, © 2016

Note: Actual official high and low records may vary slightly from our data, if they occured in-between our weather recording intervals... More about our weather records

Advertising

Spa Weather History for the Previous 24 Hours

Scroll right to see more
 ConditionsComfort  
Time TempWeatherWind HumidityBarometerVisibility
11:00 PM
Thu, Sep 29
60 °FPassing clouds.6 mph80%29.98 "Hg28 mi
10:00 PM60 °FPassing clouds.7 mph78%29.99 "Hg28 mi
9:00 PM59 °FPassing clouds.6 mph77%29.99 "Hg28 mi
8:00 PM60 °FPassing clouds.6 mph76%29.98 "Hg25 mi
7:00 PM61 °FPassing clouds.2 mph71%30.01 "Hg28 mi
6:00 PM64 °FPartly sunny.5 mph66%30.00 "Hg28 mi
5:00 PM65 °FSunny.8 mph62%30.00 "Hg22 mi
4:00 PM64 °FScattered clouds.7 mph65%30.01 "Hg25 mi
3:00 PM65 °FSunny.8 mph66%30.02 "Hg28 mi
2:00 PM65 °FScattered clouds.7 mph67%30.04 "Hg22 mi
1:00 PM63 °FPartly sunny.8 mph74%30.07 "Hg22 mi
12:00 PM62 °FPartly sunny.8 mph77%30.08 "Hg22 mi
11:00 AM62 °FPartly sunny.7 mph79%30.10 "Hg19 mi
10:00 AM59 °FOvercast.8 mph87%30.12 "Hg17 mi
9:00 AM57 °FPassing clouds.6 mph90%30.14 "Hg14 mi
8:00 AM56 °FSunny.5 mph95%30.14 "Hg12 mi
7:00 AM56 °FClear.3 mph93%30.16 "Hg12 mi
6:00 AM56 °FClear.3 mph94%30.18 "Hg9 mi
5:00 AM56 °FClear.5 mph92%30.20 "Hg11 mi
4:00 AM58 °FClear.6 mph89%30.22 "Hg15 mi
3:00 AM58 °FClear.5 mph86%30.23 "Hg22 mi
2:00 AM58 °FClear.5 mph87%30.24 "Hg22 mi
1:00 AM59 °FClear.5 mph86%30.25 "Hg22 mi
12:00 AM59 °FClear.5 mph85%30.27 "Hg19 mi
Weather by CustomWeather, © 2016

See weather overviewHow to use our weather pages